{"data":{"norad_id":69179,"intl_designator":"2026-112C","name":"ELECTRON R/B","alt_names":[],"object_type":"ROCKET_BODY","status":"UNKNOWN","operator":null,"country":"US","launch_date":"2026-05-22","launch_site_code":"RLLB","launch_vehicle":null,"mission":null,"orbit_class":"UNKNOWN","rcs_meters":null,"size_class":null,"mass_kg":null,"dimensions":null,"purposes":[],"wikipedia_slug":null,"has_3d_model":false,"image_url":null,"decayed_at":null,"tle_current":{"epoch":"2026-05-22T20:52:31.253952Z","epoch_age_seconds":269627,"freshness":"STALE","line1":"1 69179U 26112C   26142.86980618  .00129570  85042-5  14133-3 0  9998","line2":"2 69179  44.9083 325.1175 0286326 260.0946  96.7520 15.61899702    74","mean_motion":15.61899702,"eccentricity":0.0286326,"inclination_deg":44.9083,"raan_deg":325.1175,"arg_perigee_deg":260.0946,"mean_anomaly_deg":96.752,"bstar":0.00014133,"rev_number":7,"period_min":92.195420625031,"perigee_km":188.60475306365,"apogee_km":575.73508072087,"semimajor_km":6760.3069168923,"source":"CELESTRAK","updated_at":"2026-05-25T13:38:09.298162Z"}}}